Location: Hastringsfeld
(50.9620°N, 10.4787°E)
Time: 12:11:26
(UTC+00:00)

Cosmos 1805 Rocket - Pass Details

Date: 26 September 2023
Orbit: 604 x 626 km, 82.5° (Epoch: 10 December)

Event Time Altitude Azimuth Distance (km) Brightness Sun altitude
Rises 04:30:15 0° 344° (NNW) 2,874 6.9 -7.1°
Reaches altitude 10° 04:32:33 10° 337° (NNW) 1,965 6.0 -6.7°
Maximum altitude 04:36:37 41° 268° (W) 891 3.9 -6.1°
Drops below altitude 10° 04:40:41 10° 198° (SSW) 1,956 5.9 -5.4°
Sets 04:42:58 0° 191° (S) 2,858 6.8 -5.1°
